Cortez, CO

2:56 AM MDT on April 23, 2017 (GMT -0600)
Cortez Municipal

Weather History for KCEZ - October, 2011

Change the Weather History Date:

Sunday, October 30, 2011

  Actual Average Record
Temperature  
Mean Temperature 44 °F 43 °F  
Max Temperature 63 °F 60 °F 75 °F (2008)
Min Temperature 26 °F 27 °F 19 °F (1999)
Degree Days  
Heating Degree Days 20 22  
Month to date heating degree days 488  
Since 1 July heating degree days 660  
Cooling Degree Days 0 0  
Month to date cooling degree days 0  
Year to date cooling degree days 426  
Moisture  
Dew Point 25 °F    
Average Humidity 56    
Maximum Humidity 82    
Minimum Humidity 22    
Precipitation  
Precipitation 0.00 in 0.03 in 0.29 in (1998)
Month to date precipitation 1.17  
Year to date precipitation 11.39  
Sea Level Pressure  
Sea Level Pressure 30.24 in    
Wind  
Wind Speed 6 mph (ENE)    
Max Wind Speed 12 mph    
Max Gust Speed -    
Visibility 10 miles    
Events      
T = Trace of Precipitation, MM = Missing Value Source: NWS Daily Summary

Daily Weather History Graph

Daily Weather History Graph

Search for Another Location

Airport or City:

Trip Planner

Search our weather history database for the weather conditions in past years. The results will help you decide how hot, cold, wet, or windy it might be!

Date:

Astronomy

Oct. 30, 2011 Rise Set
Actual Time 7:36 AM MDT 6:18 PM MDT
Civil Twilight 7:09 AM MDT 6:45 PM MDT
Nautical Twilight 6:39 AM MDT 7:16 PM MDT
Astronomical Twilight 6:08 AM MDT 7:46 PM MDT
Moon 11:55 AM MDT (10/30) 9:54 PM MDT (10/30)
Length of Visible Light 11h 35m
Length of Day
10h 42m
Waxing Crescent, 20% of the Moon is Illuminated
Oct 30
Waxing Crescent
Nov 2
First Quarter
Nov 10
Full
Nov 18
Last Quarter
Nov 24
New

Hourly Weather History & Observations

Time (MDT) Temp. Windchill Dew Point Humidity Pressure Visibility Wind Dir Wind Speed Gust Speed Precip Events Conditions
12:53 AM 28.9 °F 21.9 °F 24.1 °F 82% 30.19 in 10.0 mi ENE 6.9 mph - N/A   Clear
2:53 AM 30.0 °F 24.1 °F 23.0 °F 75% 30.19 in 10.0 mi East 5.8 mph - N/A   Clear
3:53 AM 28.0 °F 20.8 °F 21.9 °F 78% 30.20 in 10.0 mi ENE 6.9 mph - N/A   Clear
4:53 AM 28.0 °F 20.8 °F 21.9 °F 78% 30.21 in 10.0 mi East 6.9 mph - N/A   Clear
6:53 AM 27.0 °F 23.0 °F 21.0 °F 78% 30.26 in 10.0 mi East 3.5 mph - N/A   Clear
7:53 AM 26.1 °F - 21.0 °F 81% 30.30 in 10.0 mi Calm Calm - N/A   Clear
8:53 AM 35.1 °F 27.9 °F 24.1 °F 64% 30.31 in 10.0 mi East 9.2 mph - N/A   Clear
9:53 AM 43.0 °F - 25.0 °F 49% 30.29 in 10.0 mi Calm Calm - N/A   Clear
10:53 AM 50.0 °F - 21.9 °F 33% 30.27 in 10.0 mi Calm Calm - N/A   Clear
11:53 AM 55.0 °F - 23.0 °F 29% 30.26 in 10.0 mi Calm Calm - N/A   Clear
12:53 PM 57.0 °F - 28.0 °F 33% 30.25 in 10.0 mi SW 9.2 mph - N/A   Clear
1:53 PM 59.0 °F - 26.1 °F 28% 30.21 in 10.0 mi SW 6.9 mph - N/A   Clear
3:53 PM 63.0 °F - 24.1 °F 23% 30.17 in 10.0 mi West 11.5 mph - N/A   Clear
4:53 PM 63.0 °F - 23.0 °F 22% 30.18 in 10.0 mi West 9.2 mph - N/A   Clear
5:53 PM 59.0 °F - 25.0 °F 27% 30.19 in 10.0 mi West 4.6 mph - N/A   Clear
6:53 PM 48.9 °F - 26.1 °F 41% 30.23 in 10.0 mi Calm Calm - N/A   Clear
7:53 PM 41.0 °F 37.1 °F 28.9 °F 62% 30.28 in 10.0 mi ENE 5.8 mph - N/A   Clear
8:53 PM 39.0 °F 34.0 °F 28.0 °F 65% 30.28 in 10.0 mi ENE 6.9 mph - N/A   Clear
9:53 PM 36.0 °F 31.1 °F 28.0 °F 73% 30.27 in 10.0 mi East 5.8 mph - N/A   Clear
10:53 PM 35.1 °F 29.3 °F 27.0 °F 72% 30.25 in 10.0 mi ENE 6.9 mph - N/A   Clear
11:53 PM 33.1 °F 27.7 °F 26.1 °F 75% 30.24 in 10.0 mi NE 5.8 mph - N/A   Clear